AirNav   Everest Fuels
 
 348 users online  

94FD Santa Rosa Medical Center Heliport
Milton, Florida, USA

GOING TO MILTON?


FAA INFORMATION EFFECTIVE 21 MAY 2020

Location

FAA Identifier: 94FD
Lat/Long: 30-38-01.3100N 087-03-58.2500W
30-38.021833N 087-03.970833W
30.6336972,-87.0661806
(estimated)
Elevation: 156 ft. / 48 m (estimated)
Variation: 00E (1990)
Time zone: UTC -5 (UTC -6 during Standard Time)
Zip code: 32570

Heliport Operations

Heliport use: Private use, MEDICAL USE.
Activation date: 04/1993
Control tower: no
ARTCC: JACKSONVILLE CENTER
FSS: GAINESVILLE FLIGHT SERVICE STATION
Attendance: UNATNDD
Segmented circle: no

Heliport Communications

WX ASOS at NDZ (5 nm NE): PHONE 850-623-7210
WX ASOS at NSE (6 nm N): PHONE 850-623-7241
WX ASOS at PNS (11 nm SW): PHONE 850-436-4799

Nearby radio navigation aids

VOR radial/distance  VOR name  Freq  Var
NUNr054/(17.0)SAUFLEY VOR108.8001E
CEWr237/23.1CRESTVIEW VORTAC115.9003E

 
NDB name  Hdg/Dist  Freq  Var  ID
PICKENS028/13.132602WPKZ .--. -.- --..

Heliport Services

Runway Information

Helipad H1

Dimensions: 30 x 30 ft. / 9 x 9 m
Surface: concrete
Latitude: 30-38.021833N
Longitude: 087-03.970833W
Elevation: 156.0 ft.
Traffic pattern: leftleft

Heliport Ownership and Management from official FAA records

Ownership: Privately-owned
Owner: HMA - SANTA ROSA MEDICAL CENTER
6002 BERRYHILL RD.
MILTON, FL 32570
Phone 850-626-7762
Manager: JEFF WALTERS, DIRECTOR
6002 BERRYHILL RD.
MILTON, FL 32570
Phone 850-626-7762

Additional Remarks

A52-H1 100 FT ANT 300 FT E.
FOR CD CTC PENSACOLA APCH AT 850-266-6884 OR 850-266-6885.

Instrument Procedures

There are no published instrument procedures at 94FD.

Some nearby airports with instrument procedures:

2R4 - Peter Prince Field Airport (4 nm E)
KNDZ - Whiting Field Naval Air Station South (5 nm NE)
KNSE - Whiting Field Naval Air Station North (6 nm N)
KPNS - Pensacola International Airport (11 nm SW)
KNPA - Pensacola Naval Air Station/Forrest Sherman Field (21 nm SW)
 
Loc | Ops | Rwys | IFR | FBO | Links
Com | Nav | Svcs | Stats | Notes

Continental Services
AirBoss

 
Area around 94FD (Santa Rosa Medical Center Heliport)
 
Road maps at: MapQuest Bing Google
 
Aerial photo
No photo
 
Sectional chart

 
Airport distance calculator
Flying to Santa Rosa Medical Center Heliport? Find the distance to fly.

From to 94FD

Sunrise and sunset
Times for 06-Jun-2020
 Local
(UTC-5)
 Zulu
(UTC)
Morning civil twilight05:1910:19
Sunrise05:4610:46
Sunset19:4800:48
Evening civil twilight20:1601:16

Current date and time
Zulu (UTC)  06-Jun-2020 09:15:56
Local (UTC-5)  06-Jun-2020 04:15:56
 
METAR
KNDZ 
5nm NE 
060856Z AUTO 00000KT 10SM CLR 24/22 A2991 RMK AO2 SLP113 T02390217 55022 $
KNSE 
6nm NE 
060856Z AUTO 12003KT 10SM CLR 23/22 A2991 RMK AO2 SLP112 6//// T02330222 56021 PNO $
KPNS 
11nm SW 
060853Z AUTO 16011KT 10SM FEW015 26/23 A2990 RMK AO2 SLP125 T02610228 56024
TAF
KNSE 
6nm NE 
0607/0707 12005KT 9999 FEW015 SCT250 QNH2987INS FM061300 09015G20KT VCSH SCT015 BKN060 BKN250 QNH2988INS FM061700 11010G15KT 9999 BKN025 OVC060 QNH2984INS TEMPO 0618/0623 10012G20KT AUTOMATED SENSOR METWATCH 0607 TIL 0816 T23/0611Z T29/0619Z FN00223
KPNS 
11nm SW 
060525Z 0606/0706 16006KT P6SM SCT020 BKN150 FM060900 15006KT P6SM VCSH SCT025 BKN040 FM061200 12008KT P6SM VCTS BKN025CB TEMPO 0613/0617 4SM TSRA BKN020CB FM061700 13015KT P6SM VCTS BKN025CB TEMPO 0617/0621 4SM TSRA BKN025CB FM062100 10014KT P6SM -SHRA VCTS BKN015 BKN025CB
NOTAMs
Click for the latest NOTAMs
NOTAMs are issued by the DoD/FAA and will open in a separate window not controlled by AirNav.

 

 
 

Would you like to see your business listed on this page?

 If your business provides an interesting product or service to pilots, flight crews, aircraft, or users of the Santa Rosa Medical Center Heliport, you should consider listing it here.  To start the listing process, click on the button below
 
Add a business
 

Other Pages about Santa Rosa Medical Center Heliport

Update a link
 
Copyright © AirNav, LLC. All rights reserved. Privacy Policy  Contact